Location: Bullfrog
(37.5121°N, 110.7330°W)
Time: 08:59:37
(UTC-06:00)

Envisat - Visible Passes

Search period start: 23 September 2021 00:00
Search period end: 03 October 2021 00:00
Orbit: 764 x 766 km, 98.2° (Epoch: 22 September)

Date Brightness Start Highest point End Pass type
(mag) Time Alt. Az. Time Alt. Az. Time Alt. Az.
23 Sep 4.6 05:56:54 10° NNE 06:01:35 37° E 06:06:15 10° SSE visible
24 Sep 5.9 05:21:25 10° NE 05:24:29 16° E 05:27:32 10° SE visible
25 Sep 3.4 06:21:55 10° NNE 06:26:59 68° E 06:32:01 10° S visible
26 Sep 5.1 05:45:39 10° NE 05:50:01 29° E 05:54:22 10° SSE visible
27 Sep 6.1 05:10:54 10° ENE 05:12:51 12° E 05:14:48 10° ESE visible
27 Sep 3.0 06:47:15 10° N 06:52:18 68° WNW 06:57:19 10° SSW visible
28 Sep 3.9 06:10:30 10° NNE 06:15:28 52° E 06:20:23 10° S visible
29 Sep 5.5 05:34:30 10° NE 05:38:26 22° E 05:42:21 10° SE visible
30 Sep 3.0 06:35:43 10° NNE 06:40:49 87° WNW 06:45:53 10° SSW visible
01 Oct 4.4 05:59:09 10° NNE 06:03:55 40° E 06:08:39 10° SSE visible
02 Oct 5.8 05:23:30 10° NE 05:26:50 17° E 05:30:07 10° SE visible
